sat.trackr.live / text

‹ back to catalog

KUIPER-00414

NORAD 68929 · 2026-098L

PAYLOAD ACTIVE UNKNOWN

§ Identity

Operator
Country
US
Launch date
2026-04-30
Launch site
FRGUI
Launch vehicle
Mass (kg)
RCS (m²)

External: N2YO · Heavens-Above · Gunter

§ Orbital elements

Epoch: 2026-05-25T02:48:59.638752Z

Period
94.15 min
Inclination
51.8746°
Eccentricity
0.0023812
Mean motion
15.29519644 rev/d
Perigee alt
460.9 km
Apogee alt
493.6 km
Semi-major
6,855.4 km
B*
2.1821e-4
RAAN
179.6220°
Arg perigee
69.1422°
Mean anomaly
291.2108°
Rev number
379

§ Raw data

KUIPER-004141 68929U 26098L   26145.11735693  .00006021  00000+0  21821-3 0  99972 68929  51.8746 179.6220 0023812  69.1422 291.2108 15.29519644  3792

JSON: /api/v1/satellites/68929 · /tle

For live sub-satellite position, see the globe view (requires WebGL).

§ Visibility from observer

Set your observer location to see the next 7 days of passes ≥ 10°. The values pass through the URL so the page stays shareable.

No JS? Fill the form by hand. The geolocation button needs JavaScript.